Location: Observatory Point
(48.1504°N, 123.6376°W)
Time: 14:55:40
(UTC-08:00)

N. Korean satellite - Visible Passes

Search period start: 20 November 2017 00:00
Search period end: 30 November 2017 00:00
Orbit: 460 x 514 km, 97.2° (Epoch: 20 November)

Date Brightness Start Highest point End Pass type
(mag) Time Alt. Az. Time Alt. Az. Time Alt. Az.
20 Nov 10.0 05:59:31 10° ENE 06:01:27 14° E 06:03:22 10° ESE visible
20 Nov 6.5 18:11:07 10° S 18:14:38 82° W 18:18:14 10° NNW visible
21 Nov 6.6 17:47:45 10° SSE 17:51:11 50° ENE 17:54:41 10° N visible
21 Nov 9.9 19:23:24 10° WSW 19:25:02 13° W 19:26:41 10° WNW visible
22 Nov 8.2 06:44:44 10° NNE 06:48:19 42° E 06:51:55 10° S visible
22 Nov 7.4 17:24:46 10° SE 17:27:48 28° ENE 17:30:55 10° N visible
22 Nov 9.1 18:58:29 10° SSW 19:01:20 23° W 19:04:15 10° NW visible
23 Nov 9.4 06:21:38 10° NE 06:24:43 24° E 06:27:47 10° SSE visible
23 Nov 8.1 17:02:13 10° ESE 17:04:31 16° ENE 17:06:50 10° NNE visible
23 Nov 7.8 18:34:21 10° S 18:37:43 42° W 18:41:10 10° NNW visible
24 Nov 10.0 05:59:05 10° ENE 06:01:02 14° E 06:02:59 10° ESE visible
24 Nov 6.5 18:10:37 10° S 18:14:10 83° WSW 18:17:49 10° NNW visible
25 Nov 6.7 17:47:15 10° SSE 17:50:42 50° ENE 17:54:15 10° N visible
25 Nov 9.9 19:22:51 10° WSW 19:24:34 13° W 19:26:18 10° WNW visible
26 Nov 8.2 06:44:16 10° NNE 06:47:52 42° E 06:51:28 10° S visible
26 Nov 7.5 17:24:15 10° SE 17:27:19 28° ENE 17:30:28 10° N visible
26 Nov 9.0 18:57:57 10° SSW 19:00:51 23° W 19:03:48 10° NW visible
27 Nov 9.4 06:21:10 10° NE 06:24:15 24° E 06:27:20 10° SSE visible
27 Nov 8.1 17:01:41 10° ESE 17:04:01 17° ENE 17:06:23 10° NNE visible
27 Nov 7.8 18:33:48 10° S 18:37:12 42° W 18:40:43 10° NNW visible
28 Nov 10.0 05:58:36 10° ENE 06:00:32 14° E 06:02:29 10° ESE visible
28 Nov 6.6 18:10:04 10° SSE 18:13:39 83° WSW 18:17:20 10° NNW visible
29 Nov 6.7 17:46:41 10° SSE 17:50:10 51° ENE 17:53:45 10° N visible
29 Nov 9.9 19:22:13 10° WSW 19:24:01 13° W 19:25:51 10° WNW visible
